938  
ASUS44 KOHX 251310  
RWROHX  
MIDDLE TENNESSEE HOURLY WEATHER ROUNDUP  
NATIONAL WEATHER SERVICE NASHVILLE TN  
800 AM CDT SAT MAR 25 2017  
 
NOTE: "FAIR" INDICATES FEW OR NO CLOUDS BELOW 12,000 FEET WITH  
NO SIGNIFICANT WEATHER AND/OR S TO VISIBILITY
.  
 
* THESE REPORTS ARE NOT UNDER NWS QUALITY CONTROL AND MAY NOT  
REPORT WEATHER SUCH AS PRECIPITATION AND FOG.
 
 
 
TNZ005>011-023>034-057-059-062>066-078-080-251400   
..NORTHERN MIDDLE TENNESSEE
 
 
 
CITY SKY/WX TMP DP RH WIND PRES REMARKS
 
CLARKSVILLE CLOUDY 66 52 60 S12 30.04S  
CROSSVILLE CLOUDY 58 47 66 S14G22 30.21S  
GALLATIN MOSUNNY 66 52 59 SE9G16 30.14R  
NASHVILLE CLOUDY 66 52 60 S16G25 30.09R  
PORTLAND SUNNY 64 52 63 S10G20 30.09R  
SMYRNA CLOUDY 65 52 62 SE18G30 30.11R  
SPARTA SUNNY 63 50 63 S12G18 30.15S  
SPRINGFIELD SUNNY 66 54 63 S13G23 30.06R  
WEST NASHVILLE SUNNY 64 52 63 S10 30.08S  

 
TNZ056-058-060-061-075>077-079-093>097-251400   
..SOUTHERN MIDDLE TENNESSEE
 
 
 
CITY SKY/WX TMP DP RH WIND PRES REMARKS
 
COLUMBIA SUNNY 64 55 72 S15 30.07R  
FAYETTEVILLE SUNNY 63 52 67 S18G25 30.15R  
MCMINNVILLE SUNNY 63 50 63 S8 30.16S  
SHELBYVILLE SUNNY 64 52 63 SE13 30.14R  
TULLAHOMA SUNNY 61 46 59 S12 30.16R  
WINCHESTER SUNNY 61 48 63 SE13 30.17S  

 
 
   
..KEY TO REMARKS
 
 
VSB - VISIBILITY IN MILES  
WCI - WIND CHILL INDEX  
HX - HEAT INDEX  
 
 
 
CLICK HERE TO GO TO PREVIOUS BULLETINS.

The Nexlab TN Page Main Text Page